Regional Weather Roundup
Issued by NWS Wakefield, VA

Home | Current Version | Previous Version | Text Only | Print | Product List | Glossary On
Versions: 1 2 3 4 5 6 7 8 9 10 11 12 13 14 15 16 17 18 19 20 21 22 23 24 25 26 27 28 29 30 31 32 33 34 35 36 37 38 39 40 41 42 43 44 45 46 47 48 49 50
103
ASUS41 KAKQ 302215
RWRAKQ

REGIONAL WEATHER ROUNDUP
NATIONAL WEATHER SERVICE WAKEFIELD VA
600 PM EDT SAT APR 30 2016

Note: "fair" indicates few or no clouds below 12,000 feet with no
significant weather and/or obstructions to visibility. * = Denotes
station may not report precipitation (e.g., rain,snow,etc.),
thunder or fog.

VAZ042-051-052>054-056-302300-
NORTHERN VIRGINIA

CITY           SKY/WX    TMP DP  RH WIND       PRES   REMARKS
WASH NATIONAL  CLOUDY    57  48  72 S5        30.22R
DULLES         LGT RAIN  55  47  74 SE7       30.20R
FORT BELVOIR   CLOUDY    55  48  76 CALM      30.21R
QUANTICO       CLOUDY    58  48  69 SE7       30.22R
FREDERICKSBRG* CLOUDY    57  51  80 E3        30.19S
STAFFORD*      CLOUDY    56  48  76 E5        30.24R
WARRENTON      CLOUDY    56  47  70 E6        30.19S
CULPEPER*      CLOUDY    57  51  79 SE3       30.20R
MANASSAS*      CLOUDY    55  48  76 SE5       30.21R
LEESBURG*      CLOUDY    57  50  77 SE3       30.21S
WINCHESTER     CLOUDY    54  50  87 E7        30.17S HAZE
FRONT ROYAL*   CLOUDY    54  52  94 CALM      30.15S
LURAY*         CLOUDY    55  54  94 CALM      30.15S
$$

VAZ048-049-060>072-079>083-302300-
CENTRAL AND SOUTH CENTRAL VIRGINIA

CITY           SKY/WX    TMP DP  RH WIND       PRES   REMARKS
RICHMOND       CLOUDY    58  50  75 SE9       30.18S
CHESTERFIELD*  CLOUDY    57  43  58 SE6       30.19S
PETERSBURG*    CLOUDY    59  53  78 E5        30.19R
HANOVER        CLOUDY    58  49  72 VRB6      30.19F
TAPPAHANNOCK*  CLOUDY    57  50  78 E6        30.20S
QUINTON*       CLOUDY    57  51  79 E13G18    30.18F
CHARLOTTSVILLE CLOUDY    58  50  75 E3        30.16S
GORDONSVILLE*  CLOUDY    57  52  83 CALM      30.17S
ORANGE*        CLOUDY    57  54  88 CALM      30.20R
LOUISA*        CLOUDY    61  55  82 CALM      30.17R
BUMPASS*       CLOUDY    58  51  78 E5        30.18R
FARMVILLE*     CLOUDY    61  54  77 CALM      30.15S
CREWE*         CLOUDY    59  56  92 CALM      30.16R
FORT PICKETT*  NOT AVBL
CHASE CITY*    CLOUDY    58  56  94 E3        30.15S
CLARKSVILLE*   CLOUDY    59  55  88 E5        30.15S
SOUTH HILL*    CLOUDY    57  54  89 CALM      30.22R
LAWRENCEVILLE* CLOUDY    58  54  86 E5        30.17R
EMPORIA*       CLOUDY    59  52  77 E7        30.18S
$$

VAZ088>098-302300-
SOUTHEAST VIRGINIA

CITY           SKY/WX    TMP DP  RH WIND       PRES   REMARKS
NORFOLK        FAIR      58  49  72 E10       30.19S
VIRGINIA BEACH CLOUDY    59  50  72 NE12      30.19S
NORFOLK NAVAL  PTSUNNY   58  51  78 E13       30.21S
WEST POINT*    CLOUDY    57  51  79 E6        30.21S
SALUDA*        MOCLDY    57  50  79 E3        30.20S
NEWPORT NEWS   CLOUDY    59  50  72 E7        30.20R
LANGLEY AFB    PTSUNNY   59  49  69 E8        30.19S
FORT EUSTIS    PTSUNNY   60  48  64 E6        30.18R
WILLIAMSBURG*  FAIR      61  52  72 E3        30.20S
HR EXEC AP*    FAIR      63  50  63 NE7       30.20S
FRANKLIN*      CLOUDY    60  51  72 NE6       30.19R
US460-WAKEFLD  CLOUDY    60  50  69 CALM      30.19R
$$

VAZ020-022-025-037-045-302300-
WEST CENTRAL AND SOUTHWEST VIRGINIA

CITY           SKY/WX    TMP DP  RH WIND       PRES   REMARKS
STAUNTON*      CLOUDY    57  53  86 S5        30.18R
WAYNESBORO*    CLOUDY    53  50  92 MISG      30.16R
HOT SPRINGS VA LGT RAIN  50  50 100 S5        30.14R VSB<1/4
LYNCHBURG      LGT RAIN  54  54 100 NE6       30.17S FOG
DANVILLE       CLOUDY    58  54  86 E8        30.13F
SOUTH BOSTON*  CLOUDY    58  56  95 E3        30.15S
MARTINSVILLE   CLOUDY    55  54  97 E6        30.15R FOG
ROANOKE        CLOUDY    56  53  90 SE7       30.16R
BLACKSBURG     CLOUDY    55  54  97 E6        30.17R
DUBLIN*        CLOUDY    58  56  91 E8        30.13S
MARION*        CLOUDY    61  56  83 E9        30.11S
HILLSVILLE*    CLOUDY    56  55  96 E8        30.11S
RICHLANDS*     CLOUDY    66  58  77 NE6       30.07S
WISE*          DRIZZLE   61  59  94 E5        30.07S
ABINGDON*      CLOUDY    70  56  60 NE6       30.02R
$$

MDZ021>025-VAZ099-100-302300-
SOUTHERN MARYLAND AND THE DELMARVA PENINSULA

CITY           SKY/WX    TMP DP  RH WIND       PRES   REMARKS
PATUXENT RIVER CLOUDY    56  46  69 SE5       30.21R
BAY BRIDGE APT NOT AVBL
LEONARDTOWN    CLOUDY    55  46  71 CALM      30.22S
DOVER          PTSUNNY   55  47  73 SE12      30.22R
GEORGETOWN     CLOUDY    54  42  64 SE10      30.23R
EASTON         CLOUDY   N/A N/A N/A SE5       30.24R
CAMBRIDGE      CLOUDY    55  46  71 CALM      30.21R
SALISBURY      CLOUDY    56  46  69 E9        30.21R
OCEAN CITY     CLOUDY    51  44  77 E9        30.23S
WALLOPS ISLAND FAIR      53  46  77 E13       30.22R
ACCOMACK*      FAIR     N/A N/A N/A E6        30.21R
$$

NCZ012>017-030>032-302300-
NORTH CENTRAL AND EASTERN NORTH CAROLINA

CITY           SKY/WX    TMP DP  RH WIND       PRES   REMARKS
ROANOKE RAPIDS CLOUDY    59  54  82 E6        30.16S
RALEIGH        CLOUDY    63  57  81 E8        30.13R
ELIZABETH CITY PTSUNNY   61  51  70 E15       30.18R
AHOSKIE*       PTSUNNY   60  53  75 E5        30.17R
EDENTON*       CLOUDY    64  55  72 E8        30.17S
CURRITUCK*     MOSUNNY   60  51  72 NE13      30.19S
KILL DEVIL HLS CLOUDY    57  50  79 N8        30.17S
MANTEO         NOT AVBL
CAPE HATTERAS  CLOUDY    59  54  83 NE9G23    30.14F
TARBORO*       CLOUDY    63  56  76 E5        30.16S
GOLDSBORO      CLOUDY    64  63  94 E13       30.11S
WASHINGTON     MOSUNNY   64  55  72 NE8       30.14F
GREENVILLE     CLOUDY    63  55  77 E8        30.16S
NEW BERN       CLOUDY    65  55  70 E8        30.15R
WILMINGTON     CLOUDY    65  59  81 E7        30.11S
$$

VAZ048-302300-
ELSEWHERE

CITY           SKY/WX    TMP DP  RH WIND       PRES   REMARKS
HARRISBURG PA  CLOUDY    58  44  60 SE7       30.18R
BALTIMORE      CLOUDY    58  45  62 S5        30.20R
ANNAPOLIS      CLOUDY    56  48  74 MISG      30.22R
ANDREWS AFB    CLOUDY    56  48  75 S3        30.21R
PHILADELPHIA   CLOUDY    60  42  51 S8        30.22R
HENDERSON NC   CLOUDY    58  58 100 E7        30.14S
GREENSBORO     DRIZZLE   61  59  94 E9        30.10R FOG
ROCKY MOUNT    CLOUDY    61  56  83 NE5       30.15S
$$

VAZ100-302300-
MARINE

STATION/POSITION TIME  TEMP    WIND        PRES    WAVE   SWELL
                       AIR SEA DIR/SP/G            HT/PER HT/PER
                 (UTC) (F)     (DEG/KT/KT) (MB)    (FT/S) (FT/S)
BRANDYWINE LGT   2100   53     130/  9/ 10 1023.6R
CAPE MAY NJ      2100   52 58   80/  9/ 13 1023.3R
LEWES DE         2100   52 57  100/  9/ 14 1023.7R
15NM E FENWICK I 2150   50 51              1023.6R   5/ 9
OCEAN-CITY-INLET 2100   52 54   70/  7/  9 1022.8R
WACHAPREAGUE VA  2100   53 60   80/ 11/ 12 1022.5R
THOMAS POINT MD  2200   55 57  210/  4/  5 1024.4R
GOOSES REEF MD   2200   56 58  260/  2/  2 1024.1R   0
COVE POINT MD    2100   55     180/  1/  2 1023.2R
SOLOMONS ISLAND  2100   56 60  130/  4/  5   N/A
BISHOPS HEAD MD  2100   57 58  180/  1/  2 1021.9R
PINEY POINT MD   2112          140/  5/  6   N/A
POTOMAC MD       2200   56 59   CALM  /  2 1021.9R   0
CAMBRIDGE MD     2100   58 60  110/  2/  5 1021.7S
LEWISETTA VA     2100   56 60  100/  5/  6 1022.5R
RAPPAHANNOCK LGT 2100           20/  5/  6 1023.0R
STINGRAY PT      2200   57 61   40/  4/  6 1023.2R   0
YORK RVR RNG VA  2100   57      70/  5/  6 1021.9R
YORKTOWN VA      2100   57 62   80/  6/  8 1022.2R
JAMESTOWN VA     2200   58 66   90/  6/ 10   N/A     0
DOMINION TERM VA 2100   58      80/  9/ 12 1022.4R
KIPTOPEKE VA     2100      60   70/  7/ 14   N/A
CHES BAY BRIDGE  2100   56 60   50/ 10/ 11 1022.1R
CAPE HENRY VA    2100   55      50/ 11/ 13   N/A
CHESAPEAKE LGHT  2100   52      40/ 13/ 14 1023.3R
WILLOUBY STN VA  2100   57      80/  7/  9 1023.3R
CAPE HENRY BUOY  2112      56                N/A     4/11   2/11
CAPE CHARLES BUO 2156      57                N/A     4/10   3/10
OFFSHORE WE BUOY 2121      54                N/A     5/ 9   5/ 9
64NM E OF VA BCH 2150   53 53   20/ 12/ 14 1021.7R   7/ 9   5/ 9
DUCK PIER NC     2100   54 67   20/ 14/ 17 1021.3S
44100 DUCK FRF   2124      55                N/A     5/ 9   2/11
44056 DUCK FRF   2141      59                N/A     5/ 9   2/11
OREGON INLET NC  2100   54 62   20/ 14/ 17 1021.3R
HATTERAS NC      2100   59 69   30/ 15/ 21 1020.1F
DIAMOND SHLS NC  2150   59 73   30/ 19/ 21 1020.2F   5/ 9   3/ 9
CAPE LOOKOUT NC  2200   62      50/ 17/ 18 1020.2R
C1F1C2F2C3F3C4F4C5F5C6F6C7F7C8M1C9!



USA.gov is the U.S. government's official web portal to all federal, state and local government web resources and services.